Starlink 34627

operational
NORAD ID: 65016 Int'l Des: 2025-161 Owner: SPXS Country: US Constellation: starlink
LEOCIRCULAR

Starlink 34627について

説明を読み込み中...

リアルタイム位置

3D地球を読み込み中...

次回通過

高度履歴

Altitude vs Time

uPlot chart will show altitude changes over time

軌道要素

1 65016U 25161B 25340.77846984 .00044770 00000-0 15149-2 0 9994
2 65016 53.1585 5.8452 0002150 91.3572 268.7675 15.30194530 21214
Epoch: Dec 6, 2025 • Age: 23 hours

現在のステータス

高度 487.8 km
速度 7.62 km/s
衛星直下点 -36.62°S, 126.01°W
打ち上げ日 Jul 30, 2025
運用期間 0.3 years
タイプ internet

技術仕様

分類 Payload
質量 575.00 kg
乾燥質量 530.00 kg
総質量 575.00 kg
長さ 0.30 m
直径 4.10 m
スパン 29.00 m
形状 Box + pan
製造者 SPXS
バスタイプ Starlink V2MO
フェーズステータス In Orbit
所有者/国 SPXS/US

大規模コンステレーション

Loading constellations...